www.pogodaiklimat.ru

Погода и климат >> Архив погоды >> Россия >> Краснодарский край >> Сочи


АРХИВ ПОГОДЫ в Сочи

Время (UTC), дата Ветер
(напр.,м/с)
 
Видим.   Явления Облачность Т
(С)
Тd
(С)
f
(%)
Тe
(С)
Тes
(С)
Комфортность P
(гПа)
Po
(гПа)
Тmin
(С)
Tmax
(С)
R
(мм)
R24
(мм)
S
(см)
00 14.01 В 1 10 км ливневой дождь 10/10 300 м
[Cb cap]
+5.1 +5.1 100 +4 +4 по сезону 1008.0 991.9
03 14.01 В 3 12 км слаб. ливневой дождь 10/10 300 м
[Cb cap]
+5.1 +5.1 100 +1 +1 по сезону 1006.8 990.7 +3.9 15
06 14.01 В 4 20 км слаб. ливневой дождь 10/10 1000 м
[Cb cap]
+5.9 +4.7 92 +2 +2 по сезону 1006.5 990.5
09 14.01 В 3 20 км {ливн. осадки} 10/3 1000 м
[Sc Ac As]
+8.8 +3.2 68 +7 +7 по сезону 1005.7 989.8
12 14.01 В 4 20 км {ливн. осадки} 10/3 1000 м
[Sc Ac As]
+10.1 +2.5 59 +8 +8 по сезону 1004.8 989.0
15 14.01 ЮВ 5 20 км 10/0
[Ac und]
+10.1 +1.0 53 +7 +7 по сезону 1005.1 989.3 +10.7 0.6
18 14.01 ЮВ 3 20 км в посл. час ливневой дождь 10/10 1000 м
[Cb cap]
+10.7 +2.0 55 +9 +9 тепло 1005.7 989.9
21 14.01 В 4 20 км 10/10 1000 м
[Cb cap]
+10.9 -1.5 42 +9 +9 тепло 1004.7 989.0
00 15.01 ЮВ 5
{13}
20 км 10/10 1000 м
[Cb cap]
+11.6 +0.7 47 +9 +9 тепло 1006.1 990.4
03 15.01 В 6
{10}
20 км слаб. ливневой дождь 10/10 1000 м
[Cb cap]
+7.8 +3.8 76 +4 +4 по сезону 1006.6 990.7 +7.5 0.1
06 15.01 В 7-10
{12}
20 км {ливн. осадки} 10/4 1000 м
[Cb cap Ac cast Ci fib]
+9.5 +2.8 63 +6 +6 по сезону 1007.0 991.2
09 15.01 В 5
{13}
20 км 10/8 1000 м
[Sc Ac trans Ci fib]
+10.8 +2.4 56 +8 +8 по сезону 1005.7 989.9
12 15.01 В 4
{10}
20 км 10/6 1000 м
[Sc Ac trans Ci fib]
+12.2 +1.8 49 +11 +11 тепло 1003.2 987.6
15 15.01 В 5
{12}
20 км 10/8 1000 м
[Sc Ac trans Ci fib]
+13.5 +0.2 40 +12 +12 тепло 1001.0 985.5 +14.0
18 15.01 ЮВ 10-16
{17}
20 км слаб. ливневой дождь 10/10 600 м
[Cb cap]
+12.5 +4.2 57 +9 +9 тепло 999.9 984.3
21 15.01 В 5
{16}
20 км {ливн. осадки} 10/10 600 м
[Cb cap]
+12.4 +3.4 54 +10 +10 тепло 996.8 981.3
00 16.01 ЮВ 5
{18}
20 км {ливн. осадки} 10/10 600 м
[Cb cap]
+15.3 +2.5 42 +14 +14 тепло 998.4 983.0
03 16.01 ЮВ 5-10
{11}
20 км 10/10 600 м
[Cb cap]
+13.2 +5.1 58 +11 +11 тепло 998.1 982.6 +9.3 1
06 16.01 ЮВ 1 20 км в посл. час ливневой дождь 10/10 600 м
[Cb cap]
+9.0 +6.3 83 +8 +8 тепло 1003.3 987.5 +8.8
09 16.01 СЗ 2 17 км слаб. ливневой дождь 10/10 1000 м
[Cb cap]
+5.6 +4.7 94 +3 +3 по сезону 1006.9 990.8
12 16.01 СЗ 5 10 км слаб. ливневой дождь 10/10 600 м
[Cb cap]
+3.8 +3.1 95 -1 -1 очень
холодно
1008.0 991.8
15 16.01 В 2 20 км слаб. ливневой дождь 10/8 1000 м
[Cb cap Ac As]
+2.7 +2.7 100 -1 -1 холодно 1009.5 993.2 +13.6 8
18 16.01 В 1 20 км {ливн. осадки} 10/10 1000 м
[Sc]
+2.1 +0.2 87 0 0 прохладно 1010.0 993.7
21 16.01 СЗ 2 20 км 10/10 1000 м
[Sc]
+2.5 -5.9 54 0 0 прохладно 1011.9 995.6
00 17.01 СВ 1 20 км 10/4 1000 м
[Sc Ac trans Ci fib]
+1.2 -4.9 64 -0 -0 прохладно 1012.7 996.3
03 17.01 В 2 20 км 10/3 1000 м
[Sc Ac trans Ci fib]
+0.5 -4.0 72 -3 -3 холодно 1014.0 997.5 +0.3 0.0
06 17.01 В 2 20 км 10/1 1000 м
[Cu med, cong Ci fib]
+2.1 -3.8 65 -1 -0 прохладно 1015.6 999.2 0.0
09 17.01 З 2 20 км 10/3 1000 м
[Cu med, cong Ci fib]
+6.5 -1.6 56 +5 +7 по сезону 1016.3 1000.1
12 17.01 Ю 1 20 км 10/1 1000 м
[Cu med, cong Ci fib]
+6.4 +0.7 67 +6 +7 по сезону 1016.9 1000.7
15 17.01 В 1 20 км 1/1 1000 м
[Cu hum]
+4.1 +0.6 78 +3 +3 по сезону 1018.9 1002.6 +6.9
18 17.01 В 2 20 км 4/0
[Ci fib]
+1.9 -1.0 81 -1 -1 прохладно 1021.1 1004.6
21 17.01 В 2 20 км 3/0
[Ci fib]
+1.5 -1.6 80 -2 -2 холодно 1022.7 1006.1
00 18.01 В 3 20 км 1/0
[Ci fib]
+1.2 -3.7 70 -3 -3 холодно 1023.6 1007.0
03 18.01 В 4 20 км ясно +1.3 -4.8 64 -3 -3 холодно 1023.6 1007.0 +0.7
06 18.01 В 3 20 км 3/3 1000 м
[Sc]
+3.0 -3.8 61 -1 0 прохладно 1024.5 1008.0
09 18.01 ЮВ 3 20 км 3/3 1000 м
[Sc]
+7.8 -1.4 52 +6 +8 по сезону 1024.8 1008.6
12 18.01 ЮВ 3 20 км 3/1 1000 м
[Sc Ci fib]
+7.0 0.0 61 +4 +6 прохладно 1024.0 1007.7
15 18.01 В 3 20 км 3/1 1000 м
[Cu hum Ci fib]
+5.2 0.0 69 +2 +2 прохладно 1023.9 1007.5 +8.7
18 18.01 В 2 20 км 1/0
[Ci fib]
+3.2 -1.7 70 +1 +1 прохладно 1023.8 1007.3
21 18.01 В 3 20 км 6/0
[Ci fib]
+2.3 -2.6 70 -2 -2 холодно 1023.4 1006.9
00 19.01 В 3 20 км 8/0
[Ac trans Ci fib]
+1.9 -3.8 66 -2 -2 холодно 1022.5 1006.0
03 19.01 В 3 20 км 3/0
[Ac trans]
+1.8 -3.9 66 -2 -2 холодно 1022.1 1005.6 +1.6
06 19.01 В 3 20 км 10/1 600 м
[Sc Ci fib]
+3.7 -2.7 63 0 +1 прохладно 1022.3 1005.9 +1.5
09 19.01 ЮВ 1 20 км 10/1 600 м
[Sc Cs]
+7.8 -0.2 57 +7 +11 по сезону 1022.8 1006.6
12 19.01 ЮВ 2 20 км 10/0
[Cs]
+7.3 +0.5 62 +6 +7 по сезону 1021.9 1005.7
15 19.01 В 2 20 км 10/0
[Ac trans Cs]
+6.0 +0.7 69 +4 +4 по сезону 1022.9 1006.6 +8.2
18 19.01 В 2 20 км 10/8 1000 м
[Sc Ci sp]
+4.9 +0.1 71 +3 +3 по сезону 1023.7 1007.3
21 19.01 В 3 20 км слаб. ливневой дождь 10/10 1000 м
[Cb cap]
+5.5 -0.3 66 +2 +2 по сезону 1024.1 1007.7
00 20.01 В 3 20 км {ливн. осадки} 10/10 1000 м
[Cb cap]
+5.1 +0.3 71 +2 +2 по сезону 1024.5 1008.1
03 20.01 В 3 20 км 10/10 1000 м
[Cb cap]
+5.2 +0.8 73 +2 +2 по сезону 1024.6 1008.2 +4.3 0.1
06 20.01 В 3 20 км {ливн. осадки} 10/8 1000 м
[Sc Ac As]
+5.4 +1.3 75 +2 +2 по сезону 1025.4 1009.0
09 20.01 В 1 20 км 10/10 1000 м
[Sc]
+7.1 +2.8 74 +6 +6 по сезону 1025.3 1009.0
12 20.01 В 2 20 км 10/8 1000 м
[Sc Ac trans]
+8.2 +3.3 71 +6 +7 по сезону 1024.1 1007.9
15 20.01 В 1 20 км 10/0
[Ci fib]
+6.2 +2.8 79 +5 +5 по сезону 1023.5 1007.2 +8.5 0.0
18 20.01 В 2 20 км 10/0
[Ci fib]
+4.6 +2.6 87 +2 +2 по сезону 1023.2 1006.8
21 20.01 В 3 20 км 10/0
[Ci fib]
+5.7 +1.1 72 +3 +3 по сезону 1022.6 1006.3

 

Местоположение метеостанции Сочи (Краснодарский край, Россия): широта 43.58 долгота 39.77 высота над уровнем моря 132 м.

В архиве по умолчанию представлена погода в Сочи за последнюю неделю. Архивные данные за месяц целиком и за предыдущие месяцы, начиная с января 2011 года, Вы можете получить, выбрав интересующий диапазон дат из раскрывающегося списка и нажав кнопку "Ввод!".


*Определитесь, кто Вы:
робот инопланетянин человек

Внимание! Время в таблицах - всемирное. Для получения местного времени необходимо прибавить поправку, которая равна 3 ч.

Смотрите также архив погоды в соседних городах и на ближайших метеорологических станциях:

Погода в Сочи аэропорт (Адлере) (Краснодарский край, Россия) (20 км)
Погода в Кепше (Краснодарский край, Россия) (23 км)
Погода в Имеретинке (Краснодарский край, Россия) (25 км)
Погода в Солох Ауле (Краснодарский край, Россия) (27 км)
Погода в Кичмае (Краснодарский край, Россия) (35 км)
Погода в Красной Поляне (Краснодарский край, Россия) (36 км)
Погода в Горная Карусель 1500 (Краснодарский край, Россия) (43 км)
Погода в Горная Карусель 1000 (Краснодарский край, Россия) (43 км)
Погода на Кордоне Лаура (Краснодарский край, Россия) (45 км)
Погода в Лазаревском (Краснодарский край, Россия) (50 км)

Пояснения к столбцам:

Ветер - указаны скорость ветра в м/с - средняя за 10 мин, порывы в срок и между сроками (в фигурных скобках) и направление, откуда дует ветер: С - северный, СВ - северо-восточный, В - восточный, ЮВ - юго-восточный, Ю - южный, ЮЗ - юго-западный, З - западный, СЗ - северо-западный.
Видимость - горизонтальная дальность видимости в метрах или километрах. При видимости от 1 до 10 км при отсутствии осадков обычно наблюдается дымка, при ухудшении видимости до 1 км и менее - туман. В сухую погоду видимость может ухудшаться дымом, пылью или мглою.
Явления - указаны атмосферные явления, наблюдавшиеся в срок или в последний час перед сроком; фигурными скобками обозначены явления, наблюдавшиеся между сроками (за 1-3 часа до срока); квадратными скобками обозначены град или гололедные отложения с указанием их диаметра в мм.
Облачность - указаны через наклонную черту общая и нижняя облачность в баллах и высота нижней границы облаков в метрах; квадратными скобками обозначены формы облаков: Ci - перистые, Cs - перисто-слоистые, Cc - перисто-кучевые, Ac - высококучевые, As - высокослоистые, Sc - слоисто-кучевые, Ns - слоисто-дождевые, Cu - кучевые, Cb - кучево-дождевые. Подробнее классификацию облаков см. в Атласе облаков (PDF).
T - Температура воздуха - температура, измеренная на высоте 2 м над землей.
Td - Температура точки росы - температура, при понижении до которой содержащийся в воздухе водяной пар достигнет насыщения.
f - Относительная влажность воздуха - влажноcть воздуха, измеренная на высоте 2 м над землей.
Te - Эффективная температура - температура, которую ощущает одетый по сезону человек в тени. Характеристика душности погоды. При расчете учитывается влияние влажности воздуха и скорости ветра на теплоощущения человека.
Tes - Эффективная температура на солнце - температура, которую ощущает человек, с поправкой на солнечный нагрев. Характеристика знойности погоды. Зависит от высоты солнца над горизонтом, облачности и скорости ветра. Ночью, в пасмурную погоду, а также при ветре 12 м/с и более поправка равна нулю.
P - Атмосферное давление - приведенное к уровню моря атмосферное давление.
Po - Атмосферное давление - измеренное на уровне метеостанции атмосферное давление.
Tmin - Минимальная температура - минимум температуры воздуха на высоте 2 м над землей.
Tmax - Максимальная температура - максимум температуры воздуха на высоте 2 м над землей.
R - Количество осадков - Количество выпавших осадков за период времени, мм. При наведении курсора мыши на число - период времени, за который выпало указанное количество осадков.
R24 - Количество осадков - Количество выпавших осадков за 24 часа, мм.
S - Снежный покров - Высота снежного покрова, см. При наведении курсора мыши на число - состояние снежного покрова и степень покрытия местности в баллах.